This demonstration page uses our WeatherBlox Daily Observations layout. Learn more.

38.89511, -77.03637

Hourly Observations for November 12, 2017

Temp ( °F °C ) Dew Point ( °F °C ) Humidity (%) Winds ( mph kmh ) Pressure ( in mb ) Visibility ( mi km ) Precip ( " mm )
12:52 am 00:52 Mostly Cloudy 32 0 23 -5 69 69 SW 3 6 30.48 1032 10 16.09344 0 0
1:52 am 01:52 Cloudy 32 0 25 -3.9 75 75 WSW 3 6 30.48 1032 10 16.09344 0 0
2:52 am 02:52 Cloudy 33 0.6 22 -5.6 64 64 SW 3 6 30.48 1032 10 16.09344 0 0
3:52 am 03:52 Cloudy 34 1.1 24 -4.4 67 67 Calm 30.45 1031 10 16.09344 0 0
4:52 am 04:52 Cloudy 34 1.1 26 -3.3 73 73 Calm 30.48 1032 10 16.09344 0 0
5:52 am 05:52 Cloudy 34 1.1 27 -2.8 76 76 WSW 3 6 30.48 1032 10 16.09344 0 0
6:52 am 06:52 Cloudy 35 1.7 28 -2.2 76 76 Calm 30.48 1032 10 16.09344 0 0
7:52 am 07:52 Cloudy 37 2.8 30 -1.1 76 76 Calm 30.48 1032 10 16.09344 0 0
8:52 am 08:52 Mostly Cloudy 38 3.3 31 -0.6 76 76 SE 5 7 30.48 1032 10 16.09344 0 0
9:52 am 09:52 Cloudy 40 4.4 31 -0.6 70 70 S 3 6 30.48 1032 10 16.09344 0 0
10:52 am 10:52 Cloudy 42 5.6 28 -2.2 58 58 S 7 11 30.48 1032 10 16.09344 0 0
11:52 am 11:52 Mostly Cloudy 44 6.7 27 -2.8 51 51 S 7 11 30.45 1031 10 16.09344 0 0
12:52 pm 12:52 Mostly Cloudy 44 6.7 25 -3.9 47 47 ESE 3 6 30.42 1030 10 16.09344 0 0
1:52 pm 13:52 Cloudy 46 7.8 27 -2.8 47 47 ESE 3 6 30.39 1029 10 16.09344 0 0
2:52 pm 14:52 Mostly Cloudy 46 7.8 26 -3.3 46 46 Calm 30.39 1029 10 16.09344 0 0
3:52 pm 15:52 Cloudy 47 8.3 27 -2.8 46 46 Calm 30.39 1029 10 16.09344 0 0
4:52 pm 16:52 Cloudy 47 8.3 28 -2.2 48 48 Calm 30.39 1029 10 16.09344 0 0
5:52 pm 17:52 Cloudy 47 8.3 29 -1.7 50 50 Calm 30.39 1029 10 16.09344 0 0
6:52 pm 18:52 Cloudy 45 7.2 29 -1.7 54 54 SE 8 13 30.39 1029 10 16.09344 0 0
7:52 pm 19:52 Cloudy 44 6.7 29 -1.7 55 55 Calm 30.39 1029 10 16.09344 0 0
8:52 pm 20:52 Cloudy 44 6.7 30 -1.1 58 58 SE 3 6 30.39 1029 10 16.09344 0 0
9:52 pm 21:52 Cloudy 44 6.7 32 0 63 63 ESE 3 6 30.39 1029 10 16.09344 0 0
10:52 pm 22:52 Cloudy 45 7.2 34 1.1 66 66 Calm 30.36 1028 10 16.09344 0 0
11:52 pm 23:52 Cloudy with Light Rain 43 6.1 34 1.1 71 71 ENE 7 11 30.36 1028 10 16.09344 0.01 0.254

Powered by AerisWeather